This is the latest recevied weather packets stored in our database for station/object DC4THF-13. If no packets are shown the sender has not sent any weather packets the latest 10 day(s).
| Time | Temp. | Humidity | Pressure | Rain* | Wind** | Luminosity | Snow |
|---|---|---|---|---|---|---|---|
| 1777385538 | 17.78° C | 18% | 1019.1 hPa | 0 mm | - | - | - |
| 1777384995 | 17.78° C | 19% | 1019.2 hPa | 0 mm | - | - | - |
| 1777384391 | 18.33° C | 18% | 1019.3 hPa | 0 mm | - | - | - |
| 1777383788 | 17.78° C | 19% | 1019.3 hPa | 0 mm | - | - | - |
| 1777383185 | 17.78° C | 19% | 1019.4 hPa | 0 mm | - | - | - |
| 1777382586 | 17.78° C | 19% | 1019.4 hPa | 0 mm | - | - | - |
| 1777381979 | 17.78° C | 19% | 1019.5 hPa | 0 mm | - | - | - |
| 1777381376 | 17.78° C | 19% | 1019.6 hPa | 0 mm | - | - | - |
| 1777380772 | 18.33° C | 17% | 1019.6 hPa | 0 mm | - | - | - |
| 1777380169 | 17.78° C | 15% | 1019.7 hPa | 0 mm | - | - | - |
| 1777379566 | 16.67° C | 15% | 1019.7 hPa | 0 mm | - | - | - |
| 1777378963 | 17.22° C | 15% | 1019.8 hPa | 0 mm | - | - | - |
| 1777378360 | 17.22° C | 15% | 1019.8 hPa | 0 mm | - | - | - |
| 1777377757 | 17.22° C | 15% | 1019.9 hPa | 0 mm | - | - | - |
| 1777377154 | 17.22° C | 15% | 1020 hPa | 0 mm | - | - | - |
| 1777376550 | 16.67° C | 15% | 1020.2 hPa | 0 mm | - | - | - |
| 1777375947 | 16.67° C | 15% | 1020.1 hPa | 0 mm | - | - | - |
| 1777375344 | 16.67° C | 15% | 1020.1 hPa | 0 mm | - | - | - |
| 1777374741 | 16.67° C | 15% | 1020.2 hPa | 0 mm | - | - | - |
| 1777374137 | 16.11° C | 15% | 1020.1 hPa | 0 mm | - | - | - |
| 1777373595 | 16.11° C | 15% | 1020.2 hPa | 0 mm | - | - | - |
| 1777372992 | 16.11° C | 15% | 1020.4 hPa | 0 mm | - | - | - |
| 1777372388 | 16.11° C | 15% | 1020.6 hPa | 0 mm | - | - | - |
| 1777371785 | 16.11° C | 15% | 1020.6 hPa | 0 mm | - | - | - |
| 1777371182 | 15.56° C | 15% | 1020.8 hPa | 0 mm | - | - | - |
* Rain latest hour (hover to see other rain measurements)
** Current wind speed in m/s (hover to see current wind gust speed)